Home   Weather   San Antonio   Past weeks

Flag for USA Past Weather in San Antonio, Texas, USA — Yesterday and Last 2 Weeks

Now
98 °F

Passing clouds.


Feels Like: 101 °F
Forecast: 76 / 98 °F
Wind: 13 mph from Southeast

Location: San Antonio International Airport

Current Time: Jul 20, 2017 at 7:58:45 pm

Latest Report: Jul 20, 2017 at 6:51 pm


Visibility: 10 mi

Pressure: 29.91 "Hg

Humidity: 33%

Dew Point: 64 °F

Location of San AntonioLocation

Past Weather in San Antonio — Graph

°F

San Antonio Temperature Yesterday

Maximum temperature yesterday: 96 °F (at 3:51 pm)
Minimum temperature yesterday: 77 °F (at 4:51 am)
Average temperature yesterday: 86 °F

High & Low Weather Summary for the Past Weeks

 TemperatureHumidityPressure
High99 °F (Jul 20, 5:51 pm)91% (Jul 13, 5:02 am)30.14 "Hg (Jul 13, 5:02 am)
Low72 °F (Jul 16, 5:51 am)28% (Jul 11, 4:51 pm)29.80 "Hg (Jul 16, 6:51 pm)
Average85 °F61%29.99 "Hg
* Reported Jul 5 6:51 pm — Jul 20 6:51 pm, San Antonio. Weather by CustomWeather, © 2017

Note: Actual official high and low records may vary slightly from our data, if they occured in-between our weather recording intervals... More about our weather records

Advertising

San Antonio Weather History for the Previous 24 Hours

Scroll right to see more
 ConditionsComfort  
Time TempWeatherWind HumidityBarometerVisibility
6:51 pm
Thu, Jul 20
98 °FPassing clouds.13 mph33%29.91 "Hg10 mi
5:51 pm99 °FPassing clouds.15 mph32%29.92 "Hg10 mi
4:51 pm98 °FScattered clouds.8 mph34%29.95 "Hg10 mi
3:51 pm97 °FScattered clouds.No wind35%29.97 "Hg10 mi
2:51 pm98 °FPassing clouds.5 mph34%30.00 "Hg10 mi
1:51 pm95 °FPassing clouds.3 mph36%30.03 "Hg10 mi
12:51 pm94 °FPassing clouds.8 mph41%30.05 "Hg10 mi
11:51 am91 °FPassing clouds.9 mph49%30.07 "Hg10 mi
10:51 am87 °FPassing clouds.No wind55%30.10 "Hg10 mi
9:51 am86 °FPassing clouds.9 mph61%30.10 "Hg10 mi
8:51 am82 °FPassing clouds.6 mph72%30.11 "Hg10 mi
7:51 am79 °FPassing clouds.3 mph84%30.09 "Hg10 mi
6:51 am76 °FPassing clouds.5 mph91%30.08 "Hg10 mi
5:51 am78 °FPassing clouds.5 mph84%30.06 "Hg10 mi
5:13 am78 °FPassing clouds.6 mph84%30.11 "Hg10 mi
4:51 am79 °FPassing clouds.8 mph82%30.05 "Hg10 mi
3:59 am79 °FPassing clouds.8 mph82%30.11 "Hg10 mi
3:12 am79 °FPassing clouds.8 mph82%30.10 "Hg10 mi
2:51 am79 °FPassing clouds.10 mph82%30.04 "Hg10 mi
1:51 am81 °FClear.10 mph74%30.04 "Hg10 mi
12:51 am82 °FClear.13 mph70%30.05 "Hg10 mi
11:51 pm
Wed, Jul 19
84 °FPassing clouds.14 mph65%30.03 "Hg10 mi
10:51 pm86 °FPassing clouds.10 mph61%30.02 "Hg10 mi
9:51 pm87 °FPassing clouds.14 mph57%30.01 "Hg10 mi
8:51 pm89 °FPassing clouds.10 mph50%29.98 "Hg10 mi
7:51 pm92 °FPassing clouds.14 mph46%29.98 "Hg10 mi
Weather by CustomWeather, © 2017

See weather overviewHow to use our weather pages